CCA8321 ZBAD-ZSSS

Flight info

Callsign CCA8321
Flight time 1h 32m
Altitude 35100
Route ELKUR4K ELKUR W40 YQG/K0841S1100 W142 DALIM/K0839S1070 A593 DPX A470 DALNU W166 ZJ W167 SASAN R343 PK
Aircraft A321/M-SDE3FGHIRWY/LB1

Departure

Time 2026-05-07 00:14
Airport Beijing Daxing International Airport (ZBAD)

Arrival

Time 2026-05-07 01:46
Airport Shanghai Hongqiao International Airport (ZSSS)
Time Latitude Longitude Altitude Speed Heading
2026-05-06 23:56 39.51161 116.41558 85 ft 0 kts 331°
2026-05-07 00:07 39.51145 116.41569 88 ft 4 kts 330°
2026-05-07 00:07 39.51122 116.41586 85 ft 3 kts 329°
2026-05-07 00:08 39.51103 116.41599 86 ft 9 kts 348°
2026-05-07 00:08 39.51077 116.41598 87 ft 8 kts 25°
2026-05-07 00:08 39.51054 116.41581 87 ft 8 kts 24°
2026-05-07 00:08 39.51048 116.41577 86 ft 35 kts 19°
2026-05-07 00:11 39.51069 116.41589 86 ft 7 kts 28°
2026-05-07 00:11 39.51102 116.41632 86 ft 6 kts 52°
2026-05-07 00:11 39.51122 116.41681 90 ft 6 kts 65°
2026-05-07 00:11 39.47209 116.43129 95 ft 0 kts 353°
2026-05-07 00:12 39.47210 116.43129 96 ft 0 kts 353°
2026-05-07 00:12 39.47211 116.43129 96 ft 0 kts 353°
2026-05-07 00:12 39.47213 116.43129 96 ft 0 kts 353°
2026-05-07 00:13 39.47292 116.43117 96 ft 35 kts 353°
2026-05-07 00:13 39.47769 116.43041 96 ft 100 kts 353°
2026-05-07 00:13 39.48634 116.42905 96 ft 148 kts 353°
2026-05-07 00:14 39.49729 116.42746 455 ft 155 kts 353°
2026-05-07 00:14 39.50760 116.42570 1120 ft 151 kts 352°
2026-05-07 00:14 39.51847 116.42420 1462 ft 166 kts 359°
2026-05-07 00:14 39.53006 116.42923 1699 ft 189 kts 31°
2026-05-07 00:15 39.54094 116.44004 2135 ft 202 kts 31°
2026-05-07 00:15 39.55221 116.45124 2728 ft 210 kts 37°
2026-05-07 00:15 39.56019 116.46703 3684 ft 220 kts 65°
2026-05-07 00:15 39.56332 116.48782 4123 ft 247 kts 74°
2026-05-07 00:16 39.56552 116.51037 4755 ft 256 kts 76°
2026-05-07 00:16 39.56746 116.53330 4912 ft 255 kts 77°
2026-05-07 00:16 39.56642 116.55644 4935 ft 266 kts 98°
2026-05-07 00:16 39.55796 116.57833 4948 ft 278 kts 116°
2026-05-07 00:17 39.54736 116.59923 4943 ft 278 kts 115°
2026-05-07 00:17 39.53682 116.62017 4947 ft 277 kts 115°
2026-05-07 00:17 39.52634 116.64112 4941 ft 278 kts 115°
2026-05-07 00:17 39.51589 116.66211 4942 ft 277 kts 115°
2026-05-07 00:18 39.50546 116.68308 4947 ft 277 kts 115°
2026-05-07 00:18 39.49505 116.70402 4940 ft 277 kts 115°
2026-05-07 00:18 39.48461 116.72500 4941 ft 278 kts 115°
2026-05-07 00:18 39.47415 116.74605 4942 ft 278 kts 115°
2026-05-07 00:19 39.46244 116.76620 4934 ft 286 kts 128°
2026-05-07 00:19 39.44638 116.78201 5028 ft 299 kts 147°
2026-05-07 00:19 39.42693 116.79229 5925 ft 302 kts 155°
2026-05-07 00:19 39.40788 116.80172 7223 ft 282 kts 155°
2026-05-07 00:20 39.38998 116.81076 8348 ft 273 kts 156°
2026-05-07 00:20 39.37232 116.81981 9206 ft 273 kts 156°
2026-05-07 00:20 39.35458 116.82895 9978 ft 276 kts 157°
2026-05-07 00:20 39.33663 116.83819 10654 ft 279 kts 158°
2026-05-07 00:21 39.31794 116.84777 10973 ft 300 kts 159°
2026-05-07 00:21 39.29774 116.85805 11191 ft 323 kts 159°
2026-05-07 00:21 39.27606 116.86903 11387 ft 346 kts 159°
2026-05-07 00:21 39.25288 116.88069 11545 ft 369 kts 160°
2026-05-07 00:22 39.22833 116.89299 11869 ft 384 kts 160°
2026-05-07 00:22 39.20322 116.90563 12472 ft 390 kts 160°
2026-05-07 00:22 39.17776 116.91847 13143 ft 395 kts 161°
2026-05-07 00:22 39.15201 116.93142 13787 ft 400 kts 162°
2026-05-07 00:23 39.12597 116.94450 14407 ft 403 kts 162°
2026-05-07 00:23 39.09973 116.95768 15034 ft 406 kts 163°
2026-05-07 00:23 39.07335 116.97097 15657 ft 409 kts 163°
2026-05-07 00:23 39.04676 116.98437 16273 ft 412 kts 163°
2026-05-07 00:24 39.02000 116.99784 16882 ft 414 kts 163°
2026-05-07 00:24 38.99307 117.01137 17486 ft 417 kts 163°
2026-05-07 00:24 38.96627 117.02478 18073 ft 420 kts 164°
2026-05-07 00:24 38.93898 117.03844 18616 ft 422 kts 164°
2026-05-07 00:25 38.91149 117.05207 19078 ft 424 kts 167°
2026-05-07 00:25 38.88313 117.06024 19536 ft 414 kts 183°
2026-05-07 00:25 38.85487 117.05899 20007 ft 401 kts 198°
2026-05-07 00:25 38.82859 117.04903 20509 ft 388 kts 212°
2026-05-07 00:26 38.80570 117.03187 21020 ft 376 kts 225°
2026-05-07 00:26 38.78699 117.00913 21555 ft 366 kts 237°
2026-05-07 00:26 38.77294 116.98225 22091 ft 359 kts 247°
2026-05-07 00:26 38.76123 116.95400 22656 ft 359 kts 247°
2026-05-07 00:27 38.74946 116.92580 23208 ft 359 kts 247°
2026-05-07 00:27 38.73762 116.89759 23674 ft 360 kts 246°
2026-05-07 00:27 38.72573 116.86925 24107 ft 361 kts 246°
2026-05-07 00:27 38.71399 116.84129 24530 ft 362 kts 247°
2026-05-07 00:28 38.70205 116.81294 24976 ft 361 kts 246°
2026-05-07 00:28 38.69011 116.78465 25410 ft 361 kts 246°
2026-05-07 00:28 38.67814 116.75635 25839 ft 362 kts 246°
2026-05-07 00:28 38.66617 116.72806 26266 ft 362 kts 245°
2026-05-07 00:29 38.65146 116.70157 26666 ft 371 kts 234°
2026-05-07 00:29 38.63155 116.67974 27064 ft 385 kts 222°
2026-05-07 00:30 38.54916 116.65413 28115 ft 426 kts 197°
2026-05-07 00:30 38.51958 116.65091 28472 ft 427 kts 197°
2026-05-07 00:30 38.48991 116.64768 28825 ft 428 kts 197°
2026-05-07 00:30 38.46024 116.64438 29173 ft 429 kts 198°
2026-05-07 00:31 38.43044 116.64098 29501 ft 430 kts 198°
2026-05-07 00:31 38.40075 116.63758 29933 ft 428 kts 198°
2026-05-07 00:31 38.37115 116.63423 30275 ft 426 kts 197°
2026-05-07 00:31 38.34164 116.63086 30608 ft 425 kts 197°
2026-05-07 00:32 38.31204 116.62811 30942 ft 432 kts 193°
2026-05-07 00:32 38.28155 116.63055 31273 ft 448 kts 184°
2026-05-07 00:32 38.25066 116.63965 31589 ft 463 kts 176°
2026-05-07 00:32 38.21981 116.65128 31911 ft 463 kts 177°
2026-05-07 00:33 38.18894 116.66292 32236 ft 462 kts 177°
2026-05-07 00:33 38.15852 116.67431 32500 ft 462 kts 177°
2026-05-07 00:33 38.12764 116.68578 32817 ft 462 kts 177°
2026-05-07 00:33 38.09677 116.69722 33154 ft 462 kts 177°
2026-05-07 00:34 38.06594 116.70881 33490 ft 462 kts 177°
2026-05-07 00:34 38.03515 116.72056 33826 ft 462 kts 177°
2026-05-07 00:34 38.00441 116.73238 34156 ft 462 kts 177°
2026-05-07 00:34 37.97365 116.74419 34428 ft 462 kts 177°
2026-05-07 00:35 37.94289 116.75596 34678 ft 462 kts 177°
2026-05-07 00:35 37.91211 116.76768 34926 ft 462 kts 177°
2026-05-07 00:35 37.88128 116.77937 35156 ft 463 kts 177°
2026-05-07 00:35 37.85042 116.79106 35235 ft 462 kts 177°
2026-05-07 00:36 37.78900 116.81433 35249 ft 460 kts 177°
2026-05-07 00:36 37.72820 116.83739 35250 ft 459 kts 177°
2026-05-07 00:37 37.66695 116.86056 35248 ft 460 kts 176°
2026-05-07 00:37 37.60571 116.88361 35242 ft 459 kts 176°
2026-05-07 00:38 37.54454 116.90651 35246 ft 458 kts 176°
2026-05-07 00:38 37.48339 116.92946 35247 ft 459 kts 176°
2026-05-07 00:39 37.42208 116.95248 35227 ft 461 kts 175°
2026-05-07 00:39 37.36063 116.97558 35239 ft 462 kts 175°
2026-05-07 00:40 37.29909 116.99862 35246 ft 462 kts 175°
2026-05-07 00:40 37.23771 117.02481 35209 ft 469 kts 171°
2026-05-07 00:41 37.17717 117.05432 35221 ft 471 kts 170°
2026-05-07 00:41 37.11619 117.08415 35235 ft 470 kts 171°
2026-05-07 00:42 37.05509 117.11278 35235 ft 468 kts 172°
2026-05-07 00:42 36.99387 117.14093 35186 ft 468 kts 172°
2026-05-07 00:43 36.93258 117.16922 35236 ft 471 kts 171°
2026-05-07 00:43 36.87113 117.19775 35241 ft 471 kts 172°
2026-05-07 00:44 36.84019 117.20924 35242 ft 457 kts 180°
2026-05-07 00:44 36.80926 117.21507 35244 ft 443 kts 188°
2026-05-07 00:44 36.74864 117.21555 35192 ft 435 kts 192°
2026-05-07 00:45 36.68775 117.21486 35239 ft 439 kts 192°
2026-05-07 00:45 36.62662 117.21443 35245 ft 439 kts 192°
2026-05-07 00:46 36.56555 117.21411 35244 ft 439 kts 192°
2026-05-07 00:46 36.50445 117.21377 35214 ft 439 kts 192°
2026-05-07 00:47 36.44333 117.21337 35216 ft 441 kts 190°
2026-05-07 00:47 36.41236 117.21680 35219 ft 455 kts 181°
2026-05-07 00:47 36.38121 117.22636 35210 ft 465 kts 174°
2026-05-07 00:48 36.31912 117.24965 35207 ft 467 kts 174°
2026-05-07 00:48 36.25698 117.27295 35199 ft 467 kts 174°
2026-05-07 00:49 36.19479 117.29603 35202 ft 466 kts 174°
2026-05-07 00:49 36.14312 117.31506 35204 ft 466 kts 174°
2026-05-07 00:50 36.08093 117.33796 35200 ft 466 kts 174°
2026-05-07 00:50 36.00875 117.36473 35179 ft 466 kts 173°
2026-05-07 00:51 35.95682 117.38407 35182 ft 465 kts 173°
2026-05-07 00:51 35.89493 117.40727 35180 ft 465 kts 173°
2026-05-07 00:52 35.83345 117.43027 35186 ft 465 kts 173°
2026-05-07 00:52 35.77160 117.45336 35168 ft 464 kts 173°
2026-05-07 00:53 35.70979 117.47642 35155 ft 464 kts 173°
2026-05-07 00:53 35.64796 117.49942 35166 ft 464 kts 173°
2026-05-07 00:54 35.58619 117.52237 35169 ft 464 kts 173°
2026-05-07 00:54 35.52446 117.54534 35165 ft 463 kts 173°
2026-05-07 00:55 35.46278 117.56823 35168 ft 463 kts 173°
2026-05-07 00:55 35.40107 117.59098 35167 ft 463 kts 173°
2026-05-07 00:56 35.33933 117.61378 35160 ft 463 kts 173°
2026-05-07 00:56 35.27754 117.63652 35141 ft 464 kts 173°
2026-05-07 00:57 35.21611 117.65911 35148 ft 464 kts 173°
2026-05-07 00:57 35.15424 117.68180 35153 ft 464 kts 173°
2026-05-07 00:58 35.09236 117.70448 35148 ft 464 kts 173°
2026-05-07 00:58 35.03055 117.72721 35119 ft 464 kts 173°
2026-05-07 00:59 34.93790 117.76115 35131 ft 463 kts 173°
2026-05-07 01:00 34.87619 117.78361 35139 ft 463 kts 173°
2026-05-07 01:00 34.81448 117.80623 35120 ft 464 kts 172°
2026-05-07 01:01 34.75250 117.82872 35134 ft 465 kts 173°
2026-05-07 01:01 34.69044 117.85094 35136 ft 465 kts 173°
2026-05-07 01:02 34.62838 117.87317 35134 ft 465 kts 173°
2026-05-07 01:02 34.56634 117.89542 35111 ft 465 kts 172°
2026-05-07 01:03 34.50432 117.91764 35116 ft 465 kts 172°
2026-05-07 01:03 34.44228 117.93986 35123 ft 465 kts 172°
2026-05-07 01:04 34.38059 117.96185 35127 ft 465 kts 172°
2026-05-07 01:04 34.31810 117.98407 35094 ft 465 kts 172°
2026-05-07 01:05 34.25610 118.00614 35115 ft 465 kts 172°
2026-05-07 01:05 34.19458 118.02855 35122 ft 465 kts 172°
2026-05-07 01:06 34.13272 118.05135 35128 ft 465 kts 172°
2026-05-07 01:06 34.07085 118.07393 35094 ft 464 kts 171°
2026-05-07 01:07 34.00902 118.09630 35104 ft 464 kts 171°
2026-05-07 01:07 33.94722 118.11872 35112 ft 464 kts 171°
2026-05-07 01:08 33.88550 118.14123 35107 ft 463 kts 171°
2026-05-07 01:08 33.82399 118.16502 35109 ft 470 kts 164°
2026-05-07 01:09 33.76699 118.20559 35080 ft 482 kts 152°
2026-05-07 01:09 33.71198 118.25164 35087 ft 482 kts 152°
2026-05-07 01:10 33.65682 118.29741 35076 ft 482 kts 152°
2026-05-07 01:10 33.60162 118.34312 35081 ft 482 kts 152°
2026-05-07 01:11 33.54644 118.38882 35066 ft 482 kts 152°
2026-05-07 01:11 33.49122 118.43450 35052 ft 482 kts 152°
2026-05-07 01:12 33.43601 118.48003 35065 ft 482 kts 152°
2026-05-07 01:12 33.38078 118.52552 35078 ft 482 kts 152°
2026-05-07 01:13 33.32593 118.57066 35075 ft 482 kts 152°
2026-05-07 01:13 33.27075 118.61605 35077 ft 481 kts 152°
2026-05-07 01:14 33.21560 118.66132 35053 ft 481 kts 151°
2026-05-07 01:14 33.16051 118.70673 35037 ft 482 kts 150°
2026-05-07 01:15 33.10543 118.75249 35036 ft 483 kts 150°
2026-05-07 01:15 33.05026 118.79839 35038 ft 484 kts 150°
2026-05-07 01:16 32.99496 118.84423 35037 ft 484 kts 150°
2026-05-07 01:16 32.93961 118.88991 35041 ft 484 kts 150°
2026-05-07 01:17 32.88420 118.93560 35048 ft 485 kts 150°
2026-05-07 01:17 32.82879 118.98131 35046 ft 485 kts 150°
2026-05-07 01:18 32.77348 119.02718 35055 ft 485 kts 150°
2026-05-07 01:18 32.71821 119.07315 35063 ft 485 kts 150°
2026-05-07 01:19 32.66286 119.11905 35061 ft 485 kts 150°
2026-05-07 01:19 32.60755 119.16482 35037 ft 485 kts 150°
2026-05-07 01:20 32.55219 119.21054 35038 ft 485 kts 150°
2026-05-07 01:20 32.49676 119.25620 35024 ft 485 kts 150°
2026-05-07 01:21 32.44132 119.30177 35028 ft 485 kts 150°
2026-05-07 01:21 32.38591 119.34733 35029 ft 485 kts 150°
2026-05-07 01:22 32.33044 119.39277 35016 ft 485 kts 150°
2026-05-07 01:22 32.27499 119.43818 35027 ft 485 kts 150°
2026-05-07 01:23 32.21930 119.48374 35052 ft 488 kts 150°
2026-05-07 01:23 32.16348 119.52943 34960 ft 487 kts 150°
2026-05-07 01:23 32.13565 119.55224 34304 ft 489 kts 150°
2026-05-07 01:24 32.10782 119.57491 33177 ft 492 kts 150°
2026-05-07 01:24 32.07999 119.59758 32285 ft 481 kts 149°
2026-05-07 01:24 32.05264 119.61985 31320 ft 478 kts 149°
2026-05-07 01:24 32.02519 119.64215 30354 ft 482 kts 149°
2026-05-07 01:25 31.99759 119.66453 29243 ft 481 kts 149°
2026-05-07 01:25 31.97026 119.68695 28289 ft 475 kts 146°
2026-05-07 01:25 31.94560 119.71207 27766 ft 464 kts 137°
2026-05-07 01:25 31.92460 119.74040 27111 ft 456 kts 129°
2026-05-07 01:26 31.90668 119.77106 26499 ft 454 kts 126°
2026-05-07 01:26 31.88914 119.80175 25879 ft 450 kts 126°
2026-05-07 01:26 31.87168 119.83218 25261 ft 448 kts 127°
2026-05-07 01:26 31.85420 119.86251 24659 ft 448 kts 127°
2026-05-07 01:27 31.83671 119.89276 24051 ft 447 kts 127°
2026-05-07 01:27 31.81918 119.92298 23432 ft 447 kts 127°
2026-05-07 01:27 31.80174 119.95312 22787 ft 444 kts 127°
2026-05-07 01:27 31.78446 119.98303 22219 ft 440 kts 127°
2026-05-07 01:28 31.76737 120.01262 21683 ft 435 kts 127°
2026-05-07 01:28 31.75048 120.04194 21152 ft 431 kts 126°
2026-05-07 01:28 31.73377 120.07095 20656 ft 426 kts 126°
2026-05-07 01:28 31.71725 120.09962 20161 ft 422 kts 127°
2026-05-07 01:29 31.70070 120.12822 19680 ft 417 kts 127°
2026-05-07 01:29 31.68462 120.15592 19216 ft 413 kts 127°
2026-05-07 01:29 31.66848 120.18360 18749 ft 409 kts 127°
2026-05-07 01:29 31.65247 120.21106 18279 ft 406 kts 127°
2026-05-07 01:30 31.63661 120.23835 17764 ft 403 kts 127°
2026-05-07 01:30 31.62092 120.26537 17297 ft 398 kts 127°
2026-05-07 01:30 31.60538 120.29212 16815 ft 395 kts 127°
2026-05-07 01:30 31.59101 120.31948 16337 ft 394 kts 119°
2026-05-07 01:31 31.58055 120.34942 15822 ft 403 kts 110°
2026-05-07 01:31 31.57138 120.38056 15286 ft 404 kts 111°
2026-05-07 01:31 31.56216 120.41165 14743 ft 403 kts 111°
2026-05-07 01:31 31.55293 120.44256 14227 ft 401 kts 111°
2026-05-07 01:32 31.54371 120.47333 13700 ft 399 kts 111°
2026-05-07 01:32 31.53455 120.50393 13123 ft 396 kts 111°
2026-05-07 01:32 31.52546 120.53426 12617 ft 393 kts 111°
2026-05-07 01:32 31.51645 120.56434 12105 ft 389 kts 111°
2026-05-07 01:33 31.50757 120.59413 11591 ft 386 kts 111°
2026-05-07 01:33 31.49877 120.62366 11086 ft 382 kts 111°
2026-05-07 01:33 31.49001 120.65290 10659 ft 377 kts 111°
2026-05-07 01:33 31.48152 120.68128 10533 ft 362 kts 111°
2026-05-07 01:34 31.47335 120.70854 10395 ft 348 kts 111°
2026-05-07 01:34 31.46547 120.73480 10287 ft 335 kts 111°
2026-05-07 01:34 31.45788 120.76005 10167 ft 323 kts 111°
2026-05-07 01:34 31.45055 120.78441 10036 ft 312 kts 111°
2026-05-07 01:35 31.44339 120.80811 9765 ft 306 kts 111°
2026-05-07 01:35 31.43632 120.83152 9409 ft 303 kts 111°
2026-05-07 01:35 31.42933 120.85464 9088 ft 300 kts 111°
2026-05-07 01:35 31.42234 120.87771 8648 ft 301 kts 111°
2026-05-07 01:36 31.41541 120.90053 8484 ft 296 kts 111°
2026-05-07 01:36 31.40854 120.92322 8228 ft 295 kts 110°
2026-05-07 01:36 31.40205 120.94560 7933 ft 294 kts 105°
2026-05-07 01:36 31.39900 120.96920 7565 ft 294 kts 95°
2026-05-07 01:37 31.39747 120.99299 7159 ft 293 kts 94°
2026-05-07 01:37 31.39592 121.01677 6761 ft 293 kts 94°
2026-05-07 01:37 31.39434 121.04048 6358 ft 292 kts 94°
2026-05-07 01:37 31.39275 121.06421 5933 ft 292 kts 94°
2026-05-07 01:38 31.39115 121.08782 5538 ft 291 kts 94°
2026-05-07 01:38 31.38956 121.11132 5142 ft 288 kts 93°
2026-05-07 01:38 31.38851 121.12691 4873 ft 280 kts 93°
2026-05-07 01:38 31.38703 121.14845 4740 ft 257 kts 93°
2026-05-07 01:39 31.38518 121.17508 4627 ft 238 kts 93°
2026-05-07 01:39 31.38430 121.18776 4597 ft 236 kts 93°
2026-05-07 01:39 31.38298 121.20692 4469 ft 236 kts 93°
2026-05-07 01:39 31.38193 121.22609 4325 ft 236 kts 90°
2026-05-07 01:40 31.38176 121.24551 3845 ft 241 kts 89°
2026-05-07 01:40 31.38197 121.26522 3403 ft 243 kts 89°
2026-05-07 01:40 31.38225 121.28483 3088 ft 234 kts 88°
2026-05-07 01:40 31.38240 121.30285 3056 ft 212 kts 92°
2026-05-07 01:41 31.37767 121.31838 2984 ft 200 kts 132°
2026-05-07 01:41 31.36941 121.32559 2930 ft 197 kts 159°
2026-05-07 01:42 31.36089 121.32749 2866 ft 194 kts 180°
2026-05-07 01:42 31.34733 121.32820 2583 ft 194 kts 179°
2026-05-07 01:43 31.33427 121.32890 2341 ft 182 kts 180°
2026-05-07 01:43 31.32181 121.32959 2126 ft 178 kts 179°
2026-05-07 01:43 31.30967 121.33024 1897 ft 172 kts 180°
2026-05-07 01:43 31.29799 121.33088 1673 ft 161 kts 179°
2026-05-07 01:44 31.28711 121.33147 1452 ft 152 kts 180°
2026-05-07 01:44 31.27669 121.33203 1264 ft 149 kts 180°
2026-05-07 01:44 31.26654 121.33257 1069 ft 147 kts 178°
2026-05-07 01:44 31.25632 121.33312 889 ft 146 kts 178°
2026-05-07 01:45 31.24630 121.33366 705 ft 144 kts 177°
2026-05-07 01:45 31.23628 121.33420 531 ft 143 kts 178°
2026-05-07 01:45 31.22632 121.33483 336 ft 143 kts 177°
2026-05-07 01:45 31.21648 121.33537 152 ft 141 kts 178°
2026-05-07 01:46 31.20676 121.33584 21 ft 135 kts 179°
2026-05-07 01:46 31.19895 121.33624 19 ft 83 kts 177°
2026-05-07 01:46 31.19489 121.33644 21 ft 37 kts 182°
2026-05-07 01:46 31.19292 121.33568 21 ft 14 kts 205°
2026-05-07 01:47 31.19264 121.33484 19 ft 13 kts 306°
2026-05-07 01:47 31.19344 121.33464 19 ft 12 kts 359°
2026-05-07 01:47 31.19421 121.33460 19 ft 11 kts 356°
2026-05-07 01:47 31.19516 121.33454 19 ft 17 kts 356°
2026-05-07 01:48 31.19654 121.33445 19 ft 23 kts 356°
2026-05-07 01:48 31.19805 121.33430 19 ft 17 kts 332°
2026-05-07 01:48 31.19821 121.33314 20 ft 16 kts 268°
2026-05-07 01:48 31.19814 121.33134 19 ft 26 kts 268°
2026-05-07 01:49 31.19773 121.33061 19 ft 11 kts 186°
2026-05-07 01:49 31.19727 121.32963 19 ft 19 kts 266°
2026-05-07 01:49 31.19724 121.32812 19 ft 18 kts 271°
2026-05-07 01:49 31.19705 121.32680 20 ft 14 kts 230°
2026-05-07 01:50 31.19616 121.32665 19 ft 13 kts 188°
2026-05-07 01:50 31.19550 121.32603 19 ft 12 kts 227°
2026-05-07 01:50 31.19523 121.32570 19 ft 0 kts 227°
2026-05-07 01:50 31.19518 121.32563 19 ft 1 kts 227°
2026-05-07 01:51 31.19515 121.32560 19 ft 0 kts 227°